TimeCDT,TemperatureF,Dew PointF,Humidity,Sea Level PressureIn,VisibilityMPH,Wind Direction,Wind SpeedMPH,Gust SpeedMPH,PrecipitationIn,Events,Conditions,WindDirDegrees,DateUTC
12:53 AM,60.1,52.0,75,29.86,10.0,SSE,6.9,-,N/A,,Clear,150,2013-10-11 05:53:00
1:53 AM,59.0,52.0,78,29.85,10.0,SE,8.1,-,N/A,,Clear,140,2013-10-11 06:53:00
2:53 AM,57.9,52.0,81,29.84,10.0,SE,4.6,-,N/A,,Clear,140,2013-10-11 07:53:00
3:53 AM,57.9,52.0,81,29.85,10.0,South,5.8,-,N/A,,Clear,190,2013-10-11 08:53:00
4:53 AM,57.9,53.1,84,29.83,10.0,SSE,8.1,-,N/A,,Clear,160,2013-10-11 09:53:00
5:53 AM,59.0,53.1,81,29.82,10.0,South,11.5,-,N/A,,Clear,170,2013-10-11 10:53:00
6:53 AM,60.1,53.1,78,29.81,10.0,SSE,11.5,-,N/A,,Mostly Cloudy,160,2013-10-11 11:53:00
7:53 AM,60.1,54.0,80,29.80,10.0,South,6.9,-,N/A,,Overcast,170,2013-10-11 12:53:00
8:53 AM,64.0,55.0,73,29.79,10.0,South,10.4,-,N/A,,Clear,170,2013-10-11 13:53:00
9:53 AM,66.9,57.0,70,29.78,10.0,South,19.6,25.3,N/A,,Clear,180,2013-10-11 14:53:00
10:31 AM,66.2,57.2,73,29.79,10.0,South,15.0,21.9,0.00,Rain-Thunderstorm,Light Thunderstorms and Rain,180,2013-10-11 15:31:00
10:45 AM,66.2,60.8,83,29.79,10.0,South,11.5,-,0.00,Rain-Thunderstorm,Light Rain,180,2013-10-11 15:45:00
10:53 AM,66.9,60.1,79,29.78,10.0,South,11.5,-,0.00,,Overcast,180,2013-10-11 15:53:00
11:53 AM,70.0,60.1,71,29.78,10.0,South,17.3,24.2,N/A,,Overcast,180,2013-10-11 16:53:00
12:53 PM,71.1,60.1,68,29.77,10.0,South,16.1,25.3,N/A,,Overcast,180,2013-10-11 17:53:00
1:29 PM,71.6,60.8,69,29.77,10.0,South,13.8,21.9,N/A,,Overcast,180,2013-10-11 18:29:00
1:53 PM,72.0,61.0,68,29.75,10.0,South,16.1,24.2,N/A,,Overcast,170,2013-10-11 18:53:00
2:53 PM,73.9,61.0,64,29.74,10.0,South,16.1,21.9,N/A,,Overcast,180,2013-10-11 19:53:00
3:53 PM,73.9,62.1,66,29.75,10.0,South,16.1,21.9,N/A,,Overcast,170,2013-10-11 20:53:00
4:53 PM,75.9,62.1,62,29.74,10.0,South,13.8,-,N/A,,Partly Cloudy,180,2013-10-11 21:53:00
5:53 PM,73.9,62.1,66,29.75,10.0,South,15.0,24.2,N/A,,Clear,170,2013-10-11 22:53:00
6:53 PM,71.1,62.1,73,29.76,10.0,South,8.1,-,N/A,,Clear,170,2013-10-11 23:53:00
7:53 PM,69.1,62.1,78,29.76,10.0,SSE,6.9,-,N/A,Thunderstorm,Scattered Clouds,150,2013-10-12 00:53:00
8:10 PM,69.8,62.6,78,29.78,10.0,SSE,11.5,18.4,N/A,,Scattered Clouds,150,2013-10-12 01:10:00
8:19 PM,71.6,62.6,73,29.77,10.0,SSE,10.4,-,N/A,Thunderstorm,Mostly Cloudy,160,2013-10-12 01:19:00
8:53 PM,66.0,59.0,78,29.78,10.0,WNW,12.7,26.5,0.00,Rain-Thunderstorm,Light Thunderstorms and Rain,300,2013-10-12 01:53:00
9:06 PM,69.8,59.0,68,29.78,10.0,WNW,23.0,28.8,0.00,Thunderstorm,Thunderstorm,300,2013-10-12 02:06:00
9:13 PM,66.2,60.8,83,29.83,1.2,West,29.9,42.6,0.20,Rain-Thunderstorm,Light Thunderstorms and Rain,270,2013-10-12 02:13:00
9:16 PM,62.6,60.8,94,29.83,0.5,West,10.4,42.6,0.40,Fog-Rain-Thunderstorm,Heavy Thunderstorms and Rain,260,2013-10-12 02:16:00
9:26 PM,62.6,60.8,94,29.80,1.0,WNW,8.1,-,0.56,Rain-Thunderstorm,Heavy Thunderstorms and Rain,290,2013-10-12 02:26:00
9:34 PM,64.4,60.8,88,29.80,3.0,South,12.7,-,0.56,Rain-Thunderstorm,Light Rain,180,2013-10-12 02:34:00
9:53 PM,66.0,62.1,87,29.81,10.0,WSW,16.1,21.9,0.56,,Overcast,240,2013-10-12 02:53:00
10:17 PM,66.2,62.6,88,29.83,10.0,NW,6.9,-,N/A,,Overcast,310,2013-10-12 03:17:00
10:53 PM,66.0,63.0,90,29.82,10.0,Calm,Calm,-,N/A,,Overcast,0,2013-10-12 03:53:00
11:29 PM,64.4,57.2,77,29.86,10.0,NW,8.1,-,N/A,,Scattered Clouds,310,2013-10-12 04:29:00
11:53 PM,62.1,54.0,75,29.86,10.0,NNW,9.2,-,N/A,,Clear,330,2013-10-12 04:53:00